GFSMW_925_spd_000.txt.gz
Wind_Speed
19 31 32 29 27 22 17 15 19 15 16 19 18 14 11 7 6 7 6 8 11 16 18 15 9 8 9 11 13 14 16 18 23 26 28 26 26 19 24 15 14 16 17
16 22 32 33 30 28 26 21 18 18 15 14 10 5 3 5 5 5 6 12 14 11 10 10 12 12 13 15 17 18 19 16 17 13 14 6 19 19 18 17 17 24 23
15 14 22 26 25 23 19 18 17 15 14 10 5 3 1 2 7 11 12 10 6 7 10 13 15 16 16 16 17 18 19 16 15 10 5 3 3 6 11 23 19 27 26
12 14 18 20 18 16 15 14 11 8 5 5 6 4 2 4 6 3 5 2 6 10 14 14 15 14 13 15 15 17 16 17 13 11 9 6 4 2 7 7 25 23 32
10 8 16 17 13 11 10 6 5 4 5 4 5 3 3 4 3 4 1 5 9 12 15 17 16 14 15 16 15 15 15 14 11 10 10 9 11 5 5 10 11 21 26
7 11 12 11 10 7 4 3 0 2 5 6 6 6 5 5 4 2 6 12 12 11 11 11 11 12 14 15 14 14 16 19 19 19 17 13 7 8 5 6 18 20 21
8 7 8 7 5 1 2 3 4 7 6 8 7 6 2 8 8 12 19 17 16 8 7 7 10 11 11 13 15 19 22 22 21 20 20 19 21 21 21 15 14 10 23
7 6 6 6 12 18 21 14 11 12 9 8 13 13 9 8 11 17 20 16 7 3 4 5 6 9 12 13 14 15 14 16 18 18 18 21 20 17 17 10 11 10 14
7 9 10 25 26 27 23 18 14 12 9 7 6 9 14 16 19 21 13 10 8 3 3 6 10 12 15 14 13 13 14 14 16 18 19 20 20 20 19 18 16 8 6
8 9 18 21 21 18 15 13 10 10 9 12 14 13 10 14 14 16 12 10 6 2 5 10 12 10 11 13 12 13 13 15 15 15 14 13 17 22 24 23 20 19 11
8 8 15 15 15 15 13 14 13 10 15 19 20 21 21 19 15 8 6 4 3 6 6 9 7 8 9 9 10 11 9 9 6 8 12 17 20 23 25 25 24 19 19
7 9 12 11 10 14 17 20 20 21 24 23 22 23 22 21 16 10 9 11 10 3 7 8 9 10 9 9 10 13 8 6 6 10 15 20 23 26 28 28 26 25 26
6 6 8 11 14 16 17 18 21 23 25 27 28 27 27 27 26 15 8 3 2 12 21 8 8 11 13 15 13 7 4 5 8 14 18 19 21 26 27 27 26 23 25
5 5 8 9 10 12 16 16 17 20 24 27 28 29 29 26 17 4 4 8 9 13 20 7 11 15 14 14 11 8 6 9 16 20 17 19 22 23 25 26 23 20 21
5 5 3 4 7 11 12 13 15 18 19 21 23 21 23 20 14 16 18 15 16 11 8 9 14 14 15 13 9 6 12 18 18 20 17 18 19 20 19 19 15 17 15
2 3 3 5 7 8 7 10 12 13 14 18 17 21 21 19 14 14 14 14 15 8 7 16 14 12 10 10 9 16 16 16 17 15 17 19 19 17 19 18 18 15 13
4 3 4 3 7 4 5 8 9 10 10 11 13 19 20 18 18 17 14 18 12 14 16 11 5 7 6 11 14 15 14 15 14 16 18 19 18 21 23 22 20 20 16
4 1 2 3 3 1 5 7 6 7 11 11 16 18 18 20 19 11 13 11 14 17 8 2 3 7 9 11 11 11 14 14 14 17 18 21 22 22 21 22 17 17 17
2 4 3 5 6 4 6 7 7 9 13 14 15 17 18 18 16 16 20 16 21 7 2 2 5 7 9 10 10 11 12 14 19 21 20 19 20 20 19 22 15 17 20
4 4 3 5 4 10 13 9 8 10 12 14 16 17 16 18 20 21 23 20 7 1 5 5 7 9 10 11 10 12 18 19 18 18 18 17 19 20 21 16 15 16 21
4 7 6 6 13 14 7 8 10 11 11 12 17 17 16 15 14 11 7 7 2 7 5 6 7 9 13 13 12 15 16 17 17 18 17 20 20 17 20 18 17 16 16
13 13 13 13 10 10 16 15 14 12 11 15 16 14 13 13 12 12 10 4 7 5 4 7 7 9 13 15 16 15 15 15 17 17 19 19 19 17 16 15 15 13 10
11 11 11 10 11 19 22 17 16 12 15 13 10 9 12 11 13 7 1 4 4 3 4 5 6 8 12 16 16 17 15 17 15 15 14 15 15 16 14 15 13 13 13
9 10 12 15 17 22 17 13 15 18 20 14 9 10 9 11 11 8 3 4 3 4 3 4 5 7 10 15 15 17 19 17 14 14 13 16 17 14 15 17 18 16 15
8 14 17 18 20 21 21 23 20 21 22 15 9 6 6 8 6 6 5 7 6 4 5 5 4 6 9 12 11 14 17 15 16 12 14 17 19 17 19 20 19 18 19
15 18 19 20 20 22 26 24 15 18 11 12 12 7 6 5 4 4 5 7 7 7 7 7 5 6 7 10 11 10 12 13 11 13 16 16 18 18 16 20 20 20 20

GFSMW_925_spd_003.txt.gz
Wind_Speed
9 22 23 18 17 16 15 12 11 15 16 17 15 13 11 9 7 6 8 10 12 11 11 11 11 12 13 15 17 19 21 22 25 20 24 24 12 20 10 14 14 18 18
11 16 28 28 24 25 23 18 17 16 15 11 10 6 2 2 4 7 9 10 10 11 12 11 11 12 14 16 18 20 20 19 21 11 13 4 13 3 20 10 11 21 20
9 6 17 22 21 19 17 16 14 12 10 8 6 1 1 1 4 6 5 8 9 9 10 12 13 12 10 12 14 15 14 14 15 14 7 4 3 6 7 23 13 27 22
7 8 15 17 18 16 13 11 9 8 8 7 6 6 5 6 5 4 6 8 9 10 12 14 11 8 9 12 15 13 12 11 14 7 12 11 9 3 5 9 26 18 31
8 7 16 17 13 11 9 7 5 3 3 5 8 7 4 3 2 5 10 16 13 12 12 14 11 9 7 11 12 9 9 10 11 11 13 12 15 8 6 10 10 22 25
6 10 14 10 9 6 4 4 4 6 5 5 6 6 5 1 7 9 16 22 20 24 20 15 5 3 9 10 8 8 11 12 10 11 12 12 8 13 9 6 16 16 22
6 6 11 13 13 11 6 5 4 7 5 3 3 2 7 8 2 10 22 27 28 26 18 10 3 6 8 6 7 8 8 9 8 8 9 9 11 13 13 11 14 9 21
7 8 15 18 17 17 15 13 13 12 12 11 10 7 10 13 16 18 21 22 23 20 13 7 3 8 3 7 7 6 7 7 9 10 11 12 11 9 12 13 11 9 9
7 10 19 18 15 14 14 13 12 11 10 11 12 13 15 17 17 21 24 19 14 9 7 4 6 7 10 6 7 7 8 9 10 12 13 13 10 10 14 16 16 9 8
8 8 13 12 13 13 13 13 13 15 14 14 14 16 18 18 22 25 24 16 11 9 7 9 14 7 10 11 9 10 11 12 15 14 12 13 12 14 17 20 20 17 16
7 7 10 11 12 15 17 17 14 12 13 15 17 18 19 22 24 25 23 17 12 6 3 5 7 12 10 9 11 12 16 16 12 9 10 15 17 18 21 22 23 24 21
6 8 9 11 15 14 15 14 12 12 13 15 18 20 22 25 26 26 16 6 3 1 1 6 13 11 9 12 13 15 14 9 10 10 14 20 21 20 21 24 24 22 23
6 5 7 12 13 10 10 9 9 10 13 17 20 22 23 25 27 24 13 9 7 14 24 25 15 10 11 12 14 14 11 10 10 15 19 20 18 20 23 24 25 24 23
5 4 6 12 10 9 7 5 5 10 14 16 19 21 22 22 21 18 13 15 22 20 13 14 12 11 12 12 14 14 12 12 18 19 20 18 17 20 23 24 19 20 18
5 5 5 9 7 7 3 1 5 8 11 14 16 18 18 20 19 19 19 20 14 14 13 17 12 13 12 15 13 11 13 18 20 20 20 18 18 20 20 20 21 22 18
4 4 4 10 8 8 5 5 6 7 8 10 14 16 19 21 20 17 18 17 18 18 6 11 16 12 10 7 8 14 17 19 19 21 20 19 21 19 22 22 21 20 19
6 5 9 13 13 14 11 9 8 8 9 11 13 17 18 20 19 18 15 12 12 9 12 17 7 3 5 9 12 14 16 19 19 18 20 21 19 23 22 21 20 21 18
6 8 16 14 15 14 10 9 11 11 10 13 14 16 20 22 20 15 12 15 14 12 19 6 2 4 8 11 12 13 15 15 16 20 21 20 22 22 21 24 18 17 15
12 14 15 11 10 8 9 13 13 11 12 17 16 18 21 22 20 19 18 17 17 12 5 2 3 7 9 12 10 12 13 17 19 18 20 17 19 19 22 20 19 17 18
6 5 3 2 3 8 10 8 8 13 18 18 17 19 21 19 19 18 15 10 3 2 5 1 4 6 9 9 10 12 14 16 16 21 18 16 17 21 21 21 19 17 20
9 9 6 3 5 4 10 15 17 17 21 18 17 19 16 14 15 11 11 7 4 6 5 0 1 4 8 10 11 11 12 15 16 18 17 19 18 19 18 17 18 16 16
8 6 5 5 2 9 15 18 18 19 19 18 19 19 13 11 9 9 7 3 7 7 3 1 1 2 7 10 11 11 12 14 15 16 17 18 18 17 16 16 16 14 13
5 3 4 5 9 12 13 15 17 19 19 21 24 19 12 9 9 6 3 6 7 3 4 4 3 3 6 10 10 12 13 14 14 14 13 14 16 14 14 15 15 14 15
3 3 6 9 12 14 13 16 21 21 19 22 24 14 12 8 7 4 4 5 3 4 6 6 5 4 5 9 10 12 14 15 15 12 11 13 15 14 15 15 15 16 17
1 5 8 11 14 15 15 20 20 16 14 19 15 9 6 9 2 6 3 2 4 6 7 6 6 6 5 8 9 11 12 14 13 12 12 15 18 18 17 19 17 18 19
3 7 11 14 17 17 22 21 18 14 15 18 17 15 11 8 8 7 2 3 5 6 7 8 7 7 6 7 8 8 8 11 12 9 10 13 15 17 15 18 19 19 19

GFSMW_925_spd_009.txt.gz
Wind_Speed
6 8 10 14 19 18 18 16 15 12 11 16 20 16 11 6 4 4 2 3 3 4 6 7 9 11 12 13 12 10 9 9 12 12 15 14 5 2 1 4 6 9 12
9 10 12 16 18 18 17 17 17 19 20 21 17 7 7 6 5 4 2 3 5 7 9 12 16 15 12 10 8 7 7 7 8 9 12 6 8 10 7 8 9 13 15
14 12 15 14 13 17 20 21 22 19 14 10 8 8 7 7 4 2 3 8 13 15 15 15 16 13 12 6 4 5 7 10 8 6 5 5 5 14 11 16 15 19 21
10 13 14 14 18 19 19 18 16 11 9 6 4 4 3 3 2 3 5 11 13 14 15 16 16 12 7 1 3 6 8 8 9 9 6 7 11 7 9 15 19 18 21
11 13 18 18 15 18 15 15 14 11 10 10 10 10 9 7 5 3 5 10 16 19 18 16 17 12 4 0 2 4 6 6 6 5 7 8 10 10 10 11 16 19 17
8 7 8 11 14 17 16 17 19 20 20 20 20 18 15 10 7 9 13 14 20 22 21 19 15 9 4 1 2 4 4 1 2 3 4 7 9 10 10 10 16 20 21
7 5 7 8 11 16 19 21 21 21 18 16 14 13 11 9 10 12 14 18 19 20 19 20 12 7 4 4 4 3 5 3 3 4 6 7 9 10 11 12 16 16 26
8 6 8 11 14 17 19 19 18 18 16 15 14 12 11 11 12 15 17 19 20 20 22 14 11 7 3 3 6 8 6 5 6 8 8 9 12 10 10 10 13 13 22
9 9 10 10 12 15 17 18 19 18 15 13 11 11 11 12 14 18 22 23 24 22 16 9 10 5 4 9 7 9 9 8 9 10 10 11 12 11 10 10 11 15 14
10 10 10 11 11 14 16 16 16 15 13 10 10 10 11 14 18 21 23 23 22 19 10 10 9 8 13 7 10 9 9 11 11 12 11 12 10 10 11 14 16 17 21
12 10 11 11 13 14 14 15 12 9 8 7 7 9 11 14 16 20 22 22 20 17 10 12 10 10 12 12 10 10 11 12 12 11 10 12 11 14 16 17 18 19 19
13 13 13 14 13 13 13 11 7 4 3 3 5 6 8 11 15 18 20 20 18 14 10 9 10 16 17 14 11 12 11 12 12 10 10 13 15 17 19 19 19 20 21
12 11 13 13 12 11 9 7 1 4 3 3 5 7 8 11 14 18 19 18 16 14 12 16 19 16 14 11 11 13 12 10 9 10 12 15 17 20 21 21 22 21 21
13 11 11 12 12 10 9 5 9 9 6 7 8 9 9 13 15 18 19 18 17 15 14 15 17 16 12 8 11 10 7 8 9 12 14 16 18 19 21 22 21 21 19
11 10 10 14 14 15 13 11 12 10 9 10 11 11 12 14 16 21 21 19 16 11 12 12 8 6 7 6 4 5 7 11 14 15 16 16 16 19 19 20 21 22 22
12 11 14 17 16 15 13 13 12 10 9 13 14 14 15 16 17 21 21 18 14 11 12 10 8 5 5 5 7 8 9 12 13 15 16 17 16 14 17 17 17 18 21
13 12 14 16 18 17 14 13 10 9 11 14 16 16 17 18 17 21 19 15 13 12 10 10 7 5 4 5 9 13 9 11 13 14 15 15 15 15 15 16 19 19 17
13 11 15 14 13 12 11 10 8 9 13 15 14 16 19 18 17 20 17 14 14 12 10 8 6 3 1 6 11 15 10 11 12 13 13 15 15 14 17 21 20 18 18
14 13 13 11 8 9 7 5 6 8 9 13 17 17 19 18 15 16 16 16 12 9 7 5 5 2 1 7 11 12 9 11 13 13 13 14 14 15 19 20 20 19 20
11 10 9 9 9 7 4 2 4 9 12 13 15 18 18 15 14 16 16 14 11 10 7 6 5 3 4 8 10 10 9 11 14 13 13 12 13 17 20 19 18 19 19
14 14 12 10 7 6 3 2 7 9 10 15 18 18 15 15 17 15 13 13 11 9 8 7 6 5 6 7 8 8 8 10 13 14 14 13 15 18 18 16 13 17 19
17 17 15 11 8 4 3 5 7 9 14 16 16 13 15 17 13 10 10 11 8 7 8 8 8 8 8 7 8 8 8 9 12 13 13 14 17 17 16 13 14 15 14
14 13 11 9 4 2 3 6 8 11 15 15 13 11 14 13 8 8 9 8 6 7 7 8 9 8 8 8 9 9 9 9 12 11 13 14 14 15 12 12 13 12 11
13 8 8 5 2 3 5 8 9 13 14 12 11 12 13 14 11 9 10 7 7 7 7 10 10 9 8 8 9 8 8 10 11 12 12 11 12 12 11 11 11 11 11
6 8 6 4 3 4 7 8 11 12 8 8 11 13 14 14 13 12 11 9 8 7 7 9 10 10 10 11 10 8 8 9 10 14 10 10 10 12 12 11 11 11 12
11 7 5 3 4 6 9 10 9 6 7 9 9 13 15 14 12 12 10 13 12 10 10 10 12 14 14 13 11 10 9 9 11 10 10 10 10 11 12 12 12 11 13

GFSMW_925_spd_012.txt.gz
Wind_Speed
7 8 8 10 12 13 15 17 16 15 12 11 12 12 10 6 4 4 5 4 4 4 4 4 7 9 11 12 12 14 17 16 15 20 19 21 22 11 13 13 14 14 14
9 10 12 13 13 15 14 14 14 14 12 12 10 8 8 5 6 5 4 4 5 5 6 7 9 11 13 15 13 12 13 15 12 15 20 10 16 18 9 15 18 17 17
11 12 14 14 15 16 17 17 17 15 11 9 7 7 8 7 4 2 2 3 5 6 8 9 10 12 14 16 12 9 9 13 14 11 13 9 10 18 21 16 19 17 20
13 13 15 17 18 16 16 17 14 11 8 6 7 5 3 2 3 2 1 3 6 9 11 12 13 14 15 13 10 8 8 9 13 14 15 13 15 10 11 20 20 22 20
13 14 16 16 15 15 14 13 13 12 11 11 10 8 7 6 4 3 6 10 12 14 15 16 16 16 14 10 7 7 7 11 12 16 15 14 14 14 13 11 18 21 20
14 15 15 14 14 13 13 13 14 15 14 14 13 13 10 7 6 8 11 13 17 18 18 19 18 16 12 9 7 6 8 12 12 10 9 11 12 14 14 12 17 20 23
15 13 16 16 15 13 14 15 15 15 12 13 12 11 10 8 8 11 12 16 17 19 20 19 17 14 10 8 7 6 10 9 9 8 11 11 12 14 15 18 19 18 26
14 13 14 14 15 16 15 15 14 14 12 11 11 10 9 8 7 9 12 14 16 18 19 18 14 10 8 6 7 11 8 8 9 10 12 14 15 16 17 18 19 14 24
15 13 14 15 17 17 15 14 14 13 11 9 8 8 7 7 7 10 13 15 16 18 18 15 10 8 6 9 11 10 9 8 10 12 14 16 17 17 17 18 19 21 15
15 13 15 16 16 16 15 14 13 11 9 7 6 4 4 6 7 11 14 16 17 18 17 14 11 9 9 11 12 12 9 9 12 13 14 17 18 18 19 20 21 23 26
16 14 16 17 17 16 15 14 12 10 10 6 4 3 3 5 7 10 14 15 17 17 16 14 13 12 15 16 19 15 11 12 13 15 17 18 18 19 21 23 24 26 26
15 15 18 19 19 17 15 13 11 9 7 6 5 1 3 4 7 10 14 16 17 17 15 14 12 14 18 22 17 12 12 14 16 17 17 18 20 22 24 25 24 26 27
16 16 19 19 19 18 16 14 10 7 8 6 3 3 4 6 8 11 14 16 16 16 14 14 15 17 18 16 13 12 13 14 14 14 16 19 21 24 23 23 24 23 24
17 16 17 20 19 19 16 13 8 9 8 6 6 6 7 8 10 12 14 16 16 14 13 13 13 15 14 11 9 9 9 9 12 15 17 19 19 19 20 23 22 21 21
18 18 17 19 20 19 16 11 10 10 8 7 8 9 9 10 12 13 15 16 15 14 12 11 9 8 5 3 3 7 9 12 15 16 17 16 16 16 15 16 19 19 20
18 18 18 20 20 20 15 11 11 10 8 8 9 10 11 12 13 15 15 17 15 13 12 13 9 9 6 8 7 6 10 12 15 15 15 15 14 13 17 14 16 17 21
18 18 18 19 18 18 13 12 11 9 8 8 9 10 10 12 15 15 15 17 15 13 14 13 10 10 5 6 7 9 10 12 13 13 14 15 14 15 15 17 18 20 18
17 16 17 16 16 14 11 10 10 8 7 7 8 10 12 14 15 15 15 16 14 13 11 11 9 7 5 5 7 11 9 11 11 12 12 14 15 14 14 19 22 21 20
17 17 16 16 15 13 11 10 8 7 6 7 9 10 11 14 15 15 15 16 14 12 12 9 7 7 6 6 8 9 9 10 11 11 11 12 13 13 15 20 21 21 20
17 16 16 16 15 13 12 12 9 6 6 7 8 10 12 14 15 15 16 15 12 11 10 8 7 8 6 6 7 8 8 9 11 11 12 10 10 14 18 18 18 19 19
17 17 17 15 13 9 11 9 6 5 5 7 9 11 12 12 13 15 14 12 12 10 8 8 8 8 7 7 7 8 6 8 11 12 13 12 13 16 18 16 14 17 21
15 16 14 13 13 10 8 5 4 4 5 8 10 11 10 11 12 11 10 11 11 9 8 8 8 9 9 9 8 7 8 8 9 12 13 14 16 17 17 14 15 16 15
16 17 17 13 12 8 3 6 4 5 7 9 11 10 9 11 10 10 11 12 10 9 8 8 9 11 9 10 11 9 8 8 9 10 14 17 16 15 13 11 13 13 13
12 12 14 9 6 4 4 6 6 7 9 10 9 9 10 10 10 11 12 12 11 10 9 9 11 12 10 10 9 8 7 8 9 10 14 13 13 12 12 11 10 11 12
12 11 3 2 3 3 4 4 7 8 9 8 8 9 9 9 11 11 12 13 13 12 11 9 9 9 10 11 10 10 8 8 9 12 11 11 11 11 10 10 10 10 11
11 4 3 4 3 4 5 6 7 8 7 8 9 9 10 11 11 12 12 13 15 14 15 13 11 10 12 13 13 12 11 9 10 10 12 11 11 11 11 10 11 10 10